Regional Weather Roundup
Issued by NWS

Home | Current Version | Previous Version | Graphics & Text | Print | Product List | Glossary On
Versions: 1 2 3 4 5 6 7 8 9 10 11 12 13 14 15 16 17 18 19 20 21 22 23 24 25 26 27 28 29 30 31 32 33 34 35 36 37 38 39 40 41 42 43 44 45 46 47 48 49 50
000
ASUS45 KSLC 240110
RWRUT

UTAH REGIONAL WEATHER ROUNDUP
NATIONAL WEATHER SERVICE SALT LAKE CITY UT
600 PM MST MON JAN 23 2017

UTZ001>011-023>025-240200-

NORTHERN UTAH

CITY           SKY/WX    TMP DP  RH WIND       PRES   REMARKS
BRIGHAM CITY     N/A     31  29  91 SW9       29.55R WCI  23
HILL AFB       CLOUDY    31  29  94 SW16      29.55R WCI  20
LOGAN          SNOW      29  29 100 SW23      29.50S VSB 1/2 WCI  15
OGDEN          CLOUDY    31  31 100 SW12      29.55R WCI  22
SALT LAKE CITY FLURRIES  33  31  92 W10       29.58R WCI  25
TOOELE VALLEY  LGT SNOW  32  32 100 NW8       29.60R WCI  25
WENDOVER       CLOUDY    30  21  69 NW9       29.61R WCI  22
HEBER CITY     LGT SNOW  30  27  86 S12G18    29.50S WCI  21
WEST JORDAN    CLOUDY    32  32 100 N3        29.58R

$$

UTZ011>015-024>027-240200-

CENTRAL/NORTHEAST UTAH

CITY           SKY/WX    TMP DP  RH WIND       PRES   REMARKS
PROVO AIRPORT  MIX PCPN  34  30  86 NW6       29.59R FOG     WCI  29
MOAB/CANYONLAN MOCLDY    39  29  67 S18G24    29.55S WCI  30
DELTA          CLOUDY    32  30  93 S12       29.59R WCI  23
PRICE          MOCLDY    28  23  81 NE10      29.51S WCI  19
RICHFIELD      MOCLDY    36  23  60 S20       29.62R WCI  25
ROOSEVELT      CLOUDY    25  23  93 CALM      29.53S FOG
VERNAL         LGT SNOW  30  28  92 CALM      29.52R FOG

$$

UTZ013>016-019>022-027-240200-

SOUTHERN UTAH

CITY           SKY/WX    TMP DP  RH WIND       PRES   REMARKS
BRYCE CANYON   CLOUDY    21  12  68 W5        29.61R WCI  15
CEDAR CITY     LGT SNOW  28  26  92 S8        29.64R FOG     WCI  20
MILFORD        MOCLDY    33  27  78 SW14      29.62R WCI  23
ST GEORGE      CLOUDY    45  30  57 W6        29.68R
HANKSVILLE     PTCLDY    39  21  48 MISG      29.59R
KANAB          CLEAR     36  28  75 SW13      29.69S WCI  27
BLANDING       CLOUDY    30  28  92 CALM      29.72F

$$

REGIONAL REPORTS     COLORADO/ARIZONA

CITY           SKY/WX    TMP DP  RH WIND       PRES   REMARKS
CRAIG, CO      CLOUDY    30  24  78 W9        29.54S WCI  22
GRAND JUNCTION CLOUDY    36  32  85 E3        29.56F
RIFLE, CO      LGT SNOW  32  30  92 E7        29.60R FOG     WCI  26
MONTROSE, CO   CLOUDY    36  21  54 SW16G25   29.63S WCI  26
CORTEZ, CO     LGT SNOW  30  29  96 NW12      29.70R FOG     WCI  20
COLORADO CITY    N/A     36  32  87 SW3       29.68F
PAGE, AZ       CLOUDY    40  26  57 W7        29.64F
GRAND CANYON   CLOUDY    27  27 100 SW10      29.67S WCI  17
KINGMAN, AZ    LGT RAIN  38  34  85 S8        29.72F WCI  32
FLAGSTAFF, AZ  CLOUDY    28  25  88 SW18G25   29.68S WCI  15

$$

REGIONAL REPORTS    NEVADA/IDAHO/WYOMING

CITY           SKY/WX    TMP DP  RH WIND       PRES   REMARKS
LAS VEGAS, NV  MOCLDY    47  31  53 S12       29.65S
ELY, NY        CLOUDY    19   9  65 W7        29.62S WCI  10
ELKO, NV       CLOUDY    26  20  77 SW3       29.66R
POCATELLO, ID  SNOW      28  28 100 W22       29.52R VSB 1/2 WCI  14
BURLEY, ID     LGT SNOW  29  26  89 W16G25    29.54R FOG     WCI  17
FORT BRIDGER,  CLOUDY    26  26  99 SW15      29.48R WCI  14
EVANSTON, WY   LGT SNOW  24  21  88 SW18      29.45R FOG     WCI  10
ROCK SPRINGS,  CLOUDY    30  22  72 S7        29.42R WCI  23

$$



USA.gov is the U.S. government's official web portal to all federal, state and local government web resources and services.